FW7134 Weather Reports


time (UTC)temp
F
wind
direction
speed
knots
gust
knots
rain 1hr
in
rain 24hr
in
rain mn
in
humidity
%
barometer
mb
20260504204507 57 269 13.9 20.9 0.00 0.69 0.04 70 1001.7
20260504203003 56 237 13.0 21.7 0.00 0.69 0.04 86 1001.3
20260504201602 56 243 13.0 20.9 0.00 0.69 0.04 86 1001.2
20260504200059 56 219 13.9 26.9 0.00 0.69 0.04 100 1000.8
20260504194556 55 253 15.6 27.8 0.00 0.69 0.04 100 1000.8
20260504193052 55 242 15.6 20.9 0.00 0.69 0.04 100 1000.6
20260504191547 55 244 11.3 21.7 0.00 0.69 0.04 100 1000.6
20260504190055 55 259 8.7 22.6 0.00 0.69 0.04 100 1000.4
20260504184558 54 254 10.4 21.7 0.00 0.69 0.04 100 1000.2
20260504183041 54 238 11.3 26.9 0.00 0.69 0.04 100 999.8
20260504181538 53 274 9.6 25.2 0.00 0.69 0.04 100 999.9
20260504180034 54 259 10.4 28.7 0.00 0.69 0.04 100 999.9
20260504174533 54 245 13.0 23.5 0.00 0.69 0.04 100 999.6
20260504173031 53 279 17.4 28.7 0.00 0.69 0.04 100 999.4
20260504171538 52 259 16.5 26.1 0.00 0.69 0.04 100 999.5
20260504044540 39 281 3.5 9.6 0.01 0.55 0.03 100 977.2
20260504043030 40 305 0.9 7.8 0.01 0.55 0.03 100 976.7
20260504041531 40 309 0.9 4.3 0.02 0.55 0.03 100 976.5
20260504040027 40 344 2.6 7.0 0.02 0.54 0.02 100 976.3
20260504034525 40 320 1.7 4.3 0.03 0.54 0.02 100 976.2
20260504033025 40 337 2.6 7.0 0.03 0.54 0.02 100 976.0
20260504031522 39 336 1.7 4.3 0.02 0.53 0.01 100 976.1
20260504030028 39 74 0.0 2.6 0.02 0.52 0.52 100 976.2
20260504024517 39 48 0.9 9.6 0.02 0.51 0.51 100 976.5
20260504023016 40 64 3.5 10.4 0.02 0.51 0.51 100 976.6
20260504021514 40 49 2.6 13.0 0.02 0.51 0.51 100 976.8
20260504020016 40 88 6.1 13.0 0.02 0.50 0.50 100 977.1
20260504014507 41 82 7.0 13.9 0.01 0.49 0.49 100 977.6
20260504013009 41 68 7.8 17.4 0.01 0.49 0.49 100 977.7
20260504011505 41 92 10.4 18.2 0.01 0.49 0.49 100 978.4
20260504010002 40 84 7.8 15.6 0.00 0.48 0.48 100 979.3
20260504004558 40 83 4.3 13.0 0.00 0.48 0.48 100 980.0
20260504003100 40 67 6.1 14.8 0.00 0.48 0.48 100 980.6
20260504001554 40 69 7.8 16.5 0.00 0.48 0.48 100 981.8
20260504000049 40 80 12.2 20.9 0.00 0.48 0.48 100 982.7
20260503234549 40 71 10.4 19.1 0.00 0.48 0.48 100 983.5
20260503233042 39 96 8.7 16.5 0.03 0.48 0.48 100 983.8
20260503231541 39 71 7.0 14.8 0.10 0.48 0.48 100 984.6
20260503230044 39 125 7.8 18.2 0.15 0.48 0.48 100 985.3
20260503224533 39 11 7.0 15.6 0.18 0.48 0.48 100 986.6
20260503223029 39 37 6.1 20.0 0.17 0.45 0.45 100 987.4
20260503221527 39 76 10.4 15.6 0.11 0.38 0.38 100 988.7
20260503220039 40 66 8.7 16.5 0.10 0.33 0.33 100 989.6
20260503214518 40 55 7.8 16.5 0.12 0.30 0.30 100 990.3
20260503213017 40 55 7.8 14.8 0.13 0.28 0.28 100 991.2
20260503211513 41 71 8.7 15.6 0.12 0.27 0.27 100 992.1
20260503210010 41 96 8.7 16.5 0.11 0.23 0.23 100 992.9